Location: G�kdere
(37.0328°N, 30.9000°E)
Time: 22:20:10
(UTC+00:00)

COSMO-SKYMED 1 - Pass Details

Date: 03 March 2021
Orbit: 621 x 623 km, 97.9° (Epoch: 19 April)

Event Time Altitude Azimuth Distance (km) Brightness Sun altitude
Rises 16:08:42 0° 9° (N) 2,911 5.9 -4.0°
Reaches altitude 10° 16:10:54 10° 7° (N) 2,000 5.1 -4.5°
Maximum altitude 16:15:13 70° 284° (WNW) 663 3.0 -5.3°
Drops below altitude 10° 16:19:31 10° 201° (SSW) 1,984 5.5 -6.2°
Sets 16:21:42 0° 199° (SSW) 2,886 6.3 -6.6°
